Location: Alexander
(41.3564°N, 81.5960°W)
Time: 09:07:54
(UTC+00:00)

NOAA 11 - Pass Details

Date: 24 January 2021
Orbit: 832 x 850 km, 98.4° (Epoch: 02 March)

Event Time Altitude Azimuth Distance (km) Brightness Sun altitude
Rises 23:04:32 0° 166° (SSE) 3,400 7.4 -6.3°
Reaches altitude 10° 23:06:53 10° 167° (SSE) 2,469 6.7 -6.7°
Maximum altitude 23:12:23 86° 257° (WSW) 858 4.3 -7.7°
Drops below altitude 10° 23:17:55 10° 346° (NNW) 2,482 6.6 -8.7°
Sets 23:20:18 0° 347° (NNW) 3,420 7.3 -9.1°
